Flag for Germany Weather past 2 weeks in Schweinfurt, Bavaria, Germany

Now
51 °F

Overcast.


Feels Like: 46 °F
Forecast: 39 / 44 °F
Wind: 15 mph from West

Location: Wuerzburg

Current Time: Dec 19, 2014 at 2:06:41 PM

Latest Report: Dec 19, 2014 at 1:00 PM


Visibility: 34 mi

Pressure: 29.98 "Hg

Humidity: 79%

Dew point: 45 °F

Location of SchweinfurtLocation

Historic Weather in Schweinfurt — Graph

°F

Schweinfurt temperature yesterday

Maximum temperature yesterday: 55 °F (at 10:00 PM)
Minimum temperature yesterday: 43 °F (at 12:00 AM)
Average temperature yesterday: 48 °F

Past Weeks' High & Low Weather Summary

 TemperatureHumidityPressure
High55 °F (Dec 18, 10:00 PM)100% (Dec 4, 9:00 PM)30.48 "Hg (Dec 4, 9:00 PM)
Low26 °F (Dec 9, 4:00 AM)56% (Dec 15, 2:00 PM)29.65 "Hg (Dec 12, 7:00 PM)
Average40 °F91%30.04 "Hg
* Reported Dec 4 1:00 PM — Dec 19 1:00 PM, Schweinfurt, Weather by CustomWeather, © 2014

Note: Actual official high and low records may vary slightly from our data, if they occured in-between our weather recording intervals... More about our weather records

Advertising

Schweinfurt weather history for previous 24 hours

 ConditionsComfort  
Time TempWeatherWind HumidityBarometerVisibility
1:00 PM
Dec 19
51 °FOvercast.15 mph79%29.98 "Hg34 mi
12:00 PM51 °FLight rain. Overcast.12 mph81%30.00 "Hg37 mi
11:00 AM51 °FOvercast.13 mph77%30.00 "Hg37 mi
10:00 AM51 °FOvercast.9 mph81%30.02 "Hg37 mi
9:00 AM51 °FOvercast.13 mph81%30.01 "Hg37 mi
8:00 AM51 °FOvercast.12 mph80%30.02 "Hg37 mi
7:00 AM51 °FOvercast.10 mph78%30.02 "Hg37 mi
6:00 AM51 °FOvercast.6 mph79%30.03 "Hg37 mi
5:00 AM52 °FOvercast.9 mph77%30.03 "Hg43 mi
4:00 AM52 °FOvercast.7 mph78%30.04 "Hg43 mi
3:00 AM52 °FOvercast.12 mph76%30.05 "Hg43 mi
2:00 AM52 °FOvercast.13 mph76%30.04 "Hg43 mi
1:00 AM53 °FOvercast.12 mph77%30.04 "Hg43 mi
12:00 AM54 °FOvercast.12 mph78%30.03 "Hg43 mi
11:00 PM
Dec 18
55 °FDrizzle. Overcast.10 mph81%30.01 "Hg43 mi
10:00 PM55 °FOvercast.13 mph87%29.99 "Hg43 mi
9:00 PM54 °FOvercast.8 mph91%29.98 "Hg25 mi
8:00 PM53 °FOvercast.9 mph92%29.98 "Hg43 mi
7:00 PM52 °FDrizzle. Low clouds.5 mph95%29.98 "Hg14 mi
6:00 PM51 °FDrizzle. Low clouds.7 mph97%29.97 "Hg11 mi
5:00 PM50 °FDrizzle. Low clouds.5 mph97%29.96 "Hg12 mi
4:00 PM51 °FOvercast.7 mph93%29.94 "Hg22 mi
3:00 PM51 °FLow clouds.8 mph93%29.93 "Hg16 mi
2:00 PM51 °FLow clouds.7 mph93%29.93 "Hg25 mi
Weather by CustomWeather, © 2014

See weather overviewHow to use our weather pages